Time,TemperatureF,DewpointF,PressureIn,WindDirection,WindDirectionDegrees,WindSpeedMPH,WindSpeedGustMPH,Humidity,HourlyPrecipIn,Conditions,Clouds,dailyrainin,SoftwareType,DateUTC
2013-06-01 00:07:00,68.7,64.4,30.12,SE,142,0.0,0.0,86,0.00,,,0.00,VWS V14.00,2013-06-01 04:07:00,
2013-06-01 00:08:00,69.1,65.1,30.12,SE,142,0.0,1.1,87,0.00,,,0.00,VWS V14.00,2013-06-01 04:08:00,
2013-06-01 00:13:00,69.4,65.1,30.12,SE,142,0.0,0.0,86,0.00,,,0.00,VWS V14.00,2013-06-01 04:13:00,
2013-06-01 00:18:00,70.0,65.6,30.12,SE,142,0.0,1.6,86,0.00,,,0.00,VWS V14.00,2013-06-01 04:18:00,
2013-06-01 00:23:00,70.3,66.0,30.12,SE,142,2.2,2.2,86,0.00,,,0.00,VWS V14.00,2013-06-01 04:23:00,
2013-06-01 00:28:00,71.1,66.7,30.12,SE,142,2.0,2.0,86,0.00,,,0.00,VWS V14.00,2013-06-01 04:28:00,
2013-06-01 00:33:00,71.8,67.0,30.12,SSE,165,2.0,4.0,85,0.00,,,0.00,VWS V14.00,2013-06-01 04:33:00,
2013-06-01 00:38:00,72.1,67.0,30.12,East,98,0.0,1.6,84,0.00,,,0.00,VWS V14.00,2013-06-01 04:38:00,
2013-06-01 00:43:00,72.3,66.9,30.12,East,98,0.0,1.6,83,0.00,,,0.00,VWS V14.00,2013-06-01 04:43:00,
2013-06-01 00:48:00,72.5,67.1,30.12,ESE,120,0.0,2.7,83,0.00,,,0.00,VWS V14.00,2013-06-01 04:48:00,
2013-06-01 00:53:00,72.7,67.2,30.12,SE,142,1.6,2.5,83,0.00,,,0.00,VWS V14.00,2013-06-01 04:53:00,
2013-06-01 00:58:00,72.7,66.9,30.12,SE,142,0.0,0.0,82,0.00,,,0.00,VWS V14.00,2013-06-01 04:58:00,
2013-06-01 01:03:00,72.7,66.9,30.12,East,98,1.3,2.5,82,0.00,,,0.00,VWS V14.00,2013-06-01 05:03:00,
2013-06-01 01:08:00,72.7,66.9,30.12,East,98,0.0,1.6,82,0.00,,,0.00,VWS V14.00,2013-06-01 05:08:00,
2013-06-01 01:13:00,72.7,66.9,30.12,East,98,0.9,2.7,82,0.00,,,0.00,VWS V14.00,2013-06-01 05:13:00,
2013-06-01 01:19:00,72.7,66.9,30.12,SE,142,0.0,2.5,82,0.00,,,0.00,VWS V14.00,2013-06-01 05:19:00,
2013-06-01 01:24:00,72.7,67.2,30.15,East,98,2.5,2.9,83,0.00,,,0.00,VWS V14.00,2013-06-01 05:24:00,
2013-06-01 01:29:00,72.7,67.2,30.15,SE,142,0.0,1.6,83,0.00,,,0.00,VWS V14.00,2013-06-01 05:29:00,
2013-06-01 01:34:00,72.5,67.1,30.15,ESE,120,0.0,1.3,83,0.00,,,0.00,VWS V14.00,2013-06-01 05:34:00,
2013-06-01 01:39:00,72.5,67.1,30.12,SE,142,1.1,2.0,83,0.00,,,0.00,VWS V14.00,2013-06-01 05:39:00,
2013-06-01 01:44:00,72.5,67.1,30.12,East,98,2.7,2.7,83,0.00,,,0.00,VWS V14.00,2013-06-01 05:44:00,
2013-06-01 01:49:00,72.3,66.9,30.12,ESE,120,0.0,1.1,83,0.00,,,0.00,VWS V14.00,2013-06-01 05:49:00,
2013-06-01 01:54:00,72.3,66.9,30.12,East,98,0.0,1.6,83,0.00,,,0.00,VWS V14.00,2013-06-01 05:54:00,
2013-06-01 01:59:00,72.3,66.9,30.12,SE,142,0.0,0.0,83,0.00,,,0.00,VWS V14.00,2013-06-01 05:59:00,
2013-06-01 02:04:00,72.3,66.9,30.12,SE,142,0.0,2.0,83,0.00,,,0.00,VWS V14.00,2013-06-01 06:04:00,
2013-06-01 02:09:00,72.3,67.2,30.09,SE,142,0.0,1.3,84,0.00,,,0.00,VWS V14.00,2013-06-01 06:09:00,
2013-06-01 02:14:00,72.1,66.7,30.09,ESE,120,0.0,0.0,83,0.00,,,0.00,VWS V14.00,2013-06-01 06:14:00,
2013-06-01 02:19:00,72.1,67.0,30.09,ESE,120,0.0,0.0,84,0.00,,,0.00,VWS V14.00,2013-06-01 06:19:00,
2013-06-01 02:24:00,72.1,67.0,30.15,ESE,120,0.0,2.2,84,0.00,,,0.00,VWS V14.00,2013-06-01 06:24:00,
2013-06-01 02:29:00,72.1,67.4,30.15,SSE,165,0.0,3.8,85,0.00,,,0.00,VWS V14.00,2013-06-01 06:29:00,
2013-06-01 02:34:00,72.0,66.9,30.15,SSE,165,0.0,0.0,84,0.00,,,0.00,VWS V14.00,2013-06-01 06:34:00,
2013-06-01 02:39:00,72.0,66.9,30.09,SE,142,1.1,2.0,84,0.00,,,0.00,VWS V14.00,2013-06-01 06:39:00,
2013-06-01 02:44:00,72.0,66.9,30.09,SSE,165,0.9,1.1,84,0.00,,,0.00,VWS V14.00,2013-06-01 06:44:00,
2013-06-01 02:49:00,72.0,66.9,30.09,ESE,120,1.1,1.1,84,0.00,,,0.00,VWS V14.00,2013-06-01 06:49:00,
2013-06-01 02:54:00,71.8,67.0,30.09,SE,142,0.0,1.6,85,0.00,,,0.00,VWS V14.00,2013-06-01 06:54:00,
2013-06-01 03:00:00,71.8,67.0,30.09,SSE,165,0.0,2.5,85,0.00,,,0.00,VWS V14.00,2013-06-01 07:00:00,
2013-06-01 03:05:00,71.8,67.0,30.09,SE,142,0.0,0.0,85,0.00,,,0.00,VWS V14.00,2013-06-01 07:05:00,
2013-06-01 03:10:00,71.6,66.9,30.12,ESE,120,1.1,1.6,85,0.00,,,0.00,VWS V14.00,2013-06-01 07:10:00,
2013-06-01 03:15:00,71.6,66.9,30.12,SSE,165,0.0,1.1,85,0.00,,,0.00,VWS V14.00,2013-06-01 07:15:00,
2013-06-01 03:20:00,71.4,67.0,30.12,SSE,165,0.0,0.0,86,0.00,,,0.00,VWS V14.00,2013-06-01 07:20:00,
2013-06-01 03:25:00,71.4,67.0,30.09,SE,142,1.1,2.0,86,0.00,,,0.00,VWS V14.00,2013-06-01 07:25:00,
2013-06-01 03:30:00,71.2,66.8,30.09,SE,142,1.3,2.7,86,0.00,,,0.00,VWS V14.00,2013-06-01 07:30:00,
2013-06-01 03:35:00,71.2,67.2,30.09,SE,142,0.0,1.3,87,0.00,,,0.00,VWS V14.00,2013-06-01 07:35:00,
2013-06-01 03:40:00,71.1,67.0,30.12,SSE,165,0.0,1.6,87,0.00,,,0.00,VWS V14.00,2013-06-01 07:40:00,
2013-06-01 03:45:00,71.1,67.0,30.12,SE,142,0.0,1.1,87,0.00,,,0.00,VWS V14.00,2013-06-01 07:45:00,
2013-06-01 03:50:00,70.9,66.8,30.12,SE,142,0.0,0.0,87,0.00,,,0.00,VWS V14.00,2013-06-01 07:50:00,
2013-06-01 03:55:00,70.9,66.8,30.09,South,188,0.0,0.0,87,0.00,,,0.00,VWS V14.00,2013-06-01 07:55:00,
2013-06-01 04:00:00,70.7,66.7,30.09,ESE,120,0.0,1.6,87,0.00,,,0.00,VWS V14.00,2013-06-01 08:00:00,
2013-06-01 04:05:00,70.7,66.7,30.09,ESE,120,0.0,0.0,87,0.00,,,0.00,VWS V14.00,2013-06-01 08:05:00,
2013-06-01 04:10:00,70.5,66.5,30.12,ESE,120,0.0,0.0,87,0.00,,,0.00,VWS V14.00,2013-06-01 08:10:00,
2013-06-01 04:15:00,70.5,66.8,30.12,ESE,120,0.0,2.0,88,0.00,,,0.00,VWS V14.00,2013-06-01 08:15:00,
2013-06-01 04:20:00,70.3,66.6,30.12,ESE,120,2.2,2.2,88,0.00,,,0.00,VWS V14.00,2013-06-01 08:20:00,
2013-06-01 04:25:00,70.3,66.6,30.09,SE,142,0.0,2.2,88,0.00,,,0.00,VWS V14.00,2013-06-01 08:25:00,
2013-06-01 04:30:00,70.3,66.6,30.09,ENE,75,0.0,1.6,88,0.00,,,0.00,VWS V14.00,2013-06-01 08:30:00,
2013-06-01 04:35:00,70.2,66.8,30.09,ESE,120,0.0,0.0,89,0.00,,,0.00,VWS V14.00,2013-06-01 08:35:00,
2013-06-01 04:40:00,70.2,66.8,30.09,ESE,120,0.0,1.1,89,0.00,,,0.00,VWS V14.00,2013-06-01 08:40:00,
2013-06-01 04:45:00,70.2,66.8,30.09,ESE,120,0.0,0.0,89,0.00,,,0.00,VWS V14.00,2013-06-01 08:45:00,
2013-06-01 04:50:00,70.2,66.8,30.09,ESE,120,0.0,0.0,89,0.00,,,0.00,VWS V14.00,2013-06-01 08:50:00,
2013-06-01 04:55:00,70.2,66.8,30.12,ESE,120,0.0,0.0,89,0.00,,,0.00,VWS V14.00,2013-06-01 08:55:00,
2013-06-01 05:01:00,70.2,66.8,30.12,ESE,120,0.0,0.0,89,0.00,,,0.00,VWS V14.00,2013-06-01 09:01:00,
2013-06-01 05:06:00,70.2,66.8,30.12,ESE,120,0.0,0.0,89,0.00,,,0.00,VWS V14.00,2013-06-01 09:06:00,
2013-06-01 05:11:00,70.2,66.8,30.12,ESE,120,0.0,0.0,89,0.00,,,0.00,VWS V14.00,2013-06-01 09:11:00,
2013-06-01 05:16:00,70.2,66.8,30.12,SE,142,0.0,0.0,89,0.00,,,0.00,VWS V14.00,2013-06-01 09:16:00,
2013-06-01 05:21:00,70.2,66.8,30.12,SE,142,0.0,0.0,89,0.00,,,0.00,VWS V14.00,2013-06-01 09:21:00,
2013-06-01 05:26:00,70.0,66.9,30.12,SE,142,0.0,0.0,90,0.00,,,0.00,VWS V14.00,2013-06-01 09:26:00,
2013-06-01 05:31:00,70.0,66.6,30.12,SE,142,0.0,0.0,89,0.00,,,0.00,VWS V14.00,2013-06-01 09:31:00,
2013-06-01 05:36:00,69.8,66.4,30.12,SE,142,0.0,0.0,89,0.00,,,0.00,VWS V14.00,2013-06-01 09:36:00,
2013-06-01 05:41:00,69.8,66.7,30.12,SE,142,0.0,0.0,90,0.00,,,0.00,VWS V14.00,2013-06-01 09:41:00,
2013-06-01 05:46:00,69.6,66.6,30.12,SE,142,0.0,0.0,90,0.00,,,0.00,VWS V14.00,2013-06-01 09:46:00,
2013-06-01 05:51:00,69.6,66.6,30.12,SE,142,0.0,0.0,90,0.00,,,0.00,VWS V14.00,2013-06-01 09:51:00,
2013-06-01 05:57:00,69.4,66.4,30.12,SE,142,0.0,0.0,90,0.00,,,0.00,VWS V14.00,2013-06-01 09:57:00,
2013-06-01 06:06:00,69.4,66.7,30.12,ESE,120,1.6,2.0,91,0.00,,,0.00,VWS V14.00,2013-06-01 10:06:00,
2013-06-01 06:11:00,69.4,66.7,30.12,ESE,120,0.0,0.0,91,0.00,,,0.00,VWS V14.00,2013-06-01 10:11:00,
2013-06-01 06:16:00,69.4,66.7,30.12,ESE,120,0.0,0.0,91,0.00,,,0.00,VWS V14.00,2013-06-01 10:16:00,
2013-06-01 06:21:00,69.3,66.5,30.12,ESE,120,0.0,0.0,91,0.00,,,0.00,VWS V14.00,2013-06-01 10:21:00,
2013-06-01 06:26:00,69.3,66.5,30.12,ESE,120,0.0,0.0,91,0.00,,,0.00,VWS V14.00,2013-06-01 10:26:00,
2013-06-01 06:32:00,69.3,66.5,30.12,ESE,120,0.0,0.0,91,0.04,,,0.04,VWS V14.00,2013-06-01 10:32:00,
2013-06-01 06:37:00,69.3,66.5,30.12,ESE,120,0.0,1.1,91,0.04,,,0.04,VWS V14.00,2013-06-01 10:37:00,
2013-06-01 06:42:00,69.3,66.5,30.12,ESE,120,0.0,0.0,91,0.04,,,0.04,VWS V14.00,2013-06-01 10:42:00,
2013-06-01 06:47:00,69.3,66.5,30.12,ESE,120,0.0,0.0,91,0.04,,,0.04,VWS V14.00,2013-06-01 10:47:00,
2013-06-01 06:52:00,69.3,66.5,30.12,ESE,120,0.0,0.0,91,0.04,,,0.04,VWS V14.00,2013-06-01 10:52:00,
2013-06-01 06:57:00,69.4,66.7,30.12,ESE,120,0.0,0.0,91,0.04,,,0.04,VWS V14.00,2013-06-01 10:57:00,
2013-06-01 07:02:00,69.4,66.7,30.12,ESE,120,0.0,0.0,91,0.04,,,0.04,VWS V14.00,2013-06-01 11:02:00,
2013-06-01 07:07:00,69.4,66.7,30.12,ESE,120,0.0,0.0,91,0.04,,,0.04,VWS V14.00,2013-06-01 11:07:00,
2013-06-01 07:12:00,69.6,66.9,30.12,ESE,120,0.0,0.0,91,0.04,,,0.04,VWS V14.00,2013-06-01 11:12:00,
2013-06-01 07:17:00,69.8,67.1,30.12,ESE,120,0.0,0.0,91,0.04,,,0.04,VWS V14.00,2013-06-01 11:17:00,
2013-06-01 07:22:00,70.0,67.2,30.12,SE,142,0.0,0.0,91,0.04,,,0.04,VWS V14.00,2013-06-01 11:22:00,
2013-06-01 07:27:00,70.2,67.4,30.12,ESE,120,0.0,0.0,91,0.04,,,0.04,VWS V14.00,2013-06-01 11:27:00,
2013-06-01 07:32:00,70.3,67.6,30.12,ESE,120,0.0,0.0,91,0.04,,,0.04,VWS V14.00,2013-06-01 11:32:00,
2013-06-01 07:38:00,70.5,67.8,30.12,ESE,120,0.0,1.1,91,0.00,,,0.04,VWS V14.00,2013-06-01 11:38:00,
2013-06-01 07:43:00,70.9,68.1,30.12,SSE,165,0.0,1.6,91,0.00,,,0.04,VWS V14.00,2013-06-01 11:43:00,
2013-06-01 07:48:00,71.1,68.3,30.12,East,98,0.0,2.5,91,0.00,,,0.04,VWS V14.00,2013-06-01 11:48:00,
2013-06-01 07:53:00,71.2,68.2,30.12,ENE,75,2.0,2.0,90,0.00,,,0.04,VWS V14.00,2013-06-01 11:53:00,
2013-06-01 07:58:00,71.6,68.2,30.12,SE,142,0.0,1.6,89,0.00,,,0.04,VWS V14.00,2013-06-01 11:58:00,
2013-06-01 08:03:00,71.8,68.0,30.12,ESE,120,0.9,2.7,88,0.00,,,0.04,VWS V14.00,2013-06-01 12:03:00,
2013-06-01 08:08:00,72.1,68.4,30.12,ESE,120,0.0,0.0,88,0.00,,,0.04,VWS V14.00,2013-06-01 12:08:00,
2013-06-01 08:13:00,72.5,68.1,30.12,East,98,2.2,2.9,86,0.00,,,0.04,VWS V14.00,2013-06-01 12:13:00,
2013-06-01 08:18:00,72.9,68.1,30.12,ESE,120,0.0,1.3,85,0.00,,,0.04,VWS V14.00,2013-06-01 12:18:00,
2013-06-01 08:43:00,74.1,67.6,30.12,SE,142,0.9,1.3,80,0.00,,,0.04,VWS V14.00,2013-06-01 12:43:00,
2013-06-01 08:48:00,74.5,67.6,30.12,West,278,0.0,2.0,79,0.00,,,0.04,VWS V14.00,2013-06-01 12:48:00,
2013-06-01 08:53:00,74.7,67.7,30.12,SE,142,1.1,1.1,79,0.00,,,0.04,VWS V14.00,2013-06-01 12:53:00,
2013-06-01 08:58:00,75.0,67.7,30.12,West,278,1.3,1.3,78,0.00,,,0.04,VWS V14.00,2013-06-01 12:58:00,
2013-06-01 09:03:00,75.2,67.1,30.12,South,188,2.0,2.5,76,0.00,,,0.04,VWS V14.00,2013-06-01 13:03:00,
2013-06-01 09:08:00,75.4,66.1,30.12,SSW,210,0.0,2.7,73,0.00,,,0.04,VWS V14.00,2013-06-01 13:08:00,
2013-06-01 09:13:00,75.4,66.1,30.12,ESE,120,1.3,2.5,73,0.00,,,0.04,VWS V14.00,2013-06-01 13:13:00,
2013-06-01 09:19:00,75.6,66.3,30.12,SSW,210,0.0,1.6,73,0.00,,,0.04,VWS V14.00,2013-06-01 13:19:00,
2013-06-01 09:24:00,75.9,65.4,30.12,WNW,300,1.3,3.1,70,0.00,,,0.04,VWS V14.00,2013-06-01 13:24:00,
2013-06-01 09:29:00,76.1,65.6,30.12,WNW,300,1.1,2.7,70,0.00,,,0.04,VWS V14.00,2013-06-01 13:29:00,
2013-06-01 09:34:00,76.3,65.8,30.12,WSW,255,0.0,2.0,70,0.00,,,0.04,VWS V14.00,2013-06-01 13:34:00,
2013-06-01 09:39:00,76.5,65.5,30.09,SW,232,1.6,3.1,69,0.00,,,0.04,VWS V14.00,2013-06-01 13:39:00,
2013-06-01 09:44:00,77.0,66.1,30.09,South,188,0.0,2.0,69,0.00,,,0.04,VWS V14.00,2013-06-01 13:44:00,
2013-06-01 09:49:00,77.4,66.0,30.09,East,98,1.1,2.5,68,0.00,,,0.04,VWS V14.00,2013-06-01 13:49:00,
2013-06-01 09:54:00,77.7,65.5,30.12,WNW,300,0.0,2.0,66,0.00,,,0.04,VWS V14.00,2013-06-01 13:54:00,
2013-06-01 09:59:00,77.7,65.9,30.12,NNW,345,2.2,2.2,67,0.00,,,0.04,VWS V14.00,2013-06-01 13:59:00,
2013-06-01 10:04:00,77.9,65.2,30.12,SE,142,1.6,2.5,65,0.00,,,0.04,VWS V14.00,2013-06-01 14:04:00,
2013-06-01 10:09:00,78.3,65.5,30.12,South,188,0.0,1.6,65,0.00,,,0.04,VWS V14.00,2013-06-01 14:09:00,
2013-06-01 10:14:00,78.4,65.3,30.12,WSW,255,2.7,2.7,64,0.00,,,0.04,VWS V14.00,2013-06-01 14:14:00,
2013-06-01 10:19:00,78.6,65.4,30.12,ESE,120,2.0,2.9,64,0.00,,,0.04,VWS V14.00,2013-06-01 14:19:00,
2013-06-01 10:24:00,78.8,65.2,30.12,WNW,300,0.0,2.5,63,0.00,,,0.04,VWS V14.00,2013-06-01 14:24:00,
2013-06-01 10:29:00,79.0,64.9,30.12,West,278,1.6,2.7,62,0.00,,,0.04,VWS V14.00,2013-06-01 14:29:00,
2013-06-01 10:34:00,79.0,63.9,30.12,East,98,2.5,2.7,60,0.00,,,0.04,VWS V14.00,2013-06-01 14:34:00,
2013-06-01 10:39:00,79.2,64.1,30.15,NW,322,2.0,2.7,60,0.00,,,0.04,VWS V14.00,2013-06-01 14:39:00,
2013-06-01 10:44:00,79.3,62.8,30.15,West,278,1.6,2.9,57,0.00,,,0.04,VWS V14.00,2013-06-01 14:44:00,
2013-06-01 10:50:00,79.3,64.3,30.15,East,98,2.7,2.7,60,0.00,,,0.04,VWS V14.00,2013-06-01 14:50:00,
2013-06-01 10:55:00,80.1,64.5,30.12,SE,142,1.6,3.4,59,0.00,,,0.04,VWS V14.00,2013-06-01 14:55:00,
2013-06-01 11:00:00,80.4,64.8,30.12,SSW,210,0.0,3.6,59,0.00,,,0.04,VWS V14.00,2013-06-01 15:00:00,
2013-06-01 11:05:00,80.4,63.8,30.12,SW,232,0.0,3.1,57,0.00,,,0.04,VWS V14.00,2013-06-01 15:05:00,
2013-06-01 11:10:00,80.4,63.8,30.12,SSE,165,2.0,2.9,57,0.00,,,0.04,VWS V14.00,2013-06-01 15:10:00,
2013-06-01 11:15:00,80.4,63.8,30.12,NW,322,0.0,3.4,57,0.00,,,0.04,VWS V14.00,2013-06-01 15:15:00,
2013-06-01 11:20:00,80.6,63.0,30.12,WSW,255,0.0,2.7,55,0.00,,,0.04,VWS V14.00,2013-06-01 15:20:00,
2013-06-01 11:25:00,80.8,63.6,30.12,NW,322,2.0,2.7,56,0.00,,,0.04,VWS V14.00,2013-06-01 15:25:00,
2013-06-01 11:30:00,80.8,63.1,30.12,West,278,2.5,2.7,55,0.00,,,0.04,VWS V14.00,2013-06-01 15:30:00,
2013-06-01 11:35:00,81.0,62.2,30.12,NW,322,1.1,4.0,53,0.00,,,0.04,VWS V14.00,2013-06-01 15:35:00,
2013-06-01 11:40:00,81.1,62.9,30.12,North,8,2.5,3.1,54,0.00,,,0.04,VWS V14.00,2013-06-01 15:40:00,
2013-06-01 11:45:00,81.3,62.6,30.12,WNW,300,1.1,4.0,53,0.00,,,0.04,VWS V14.00,2013-06-01 15:45:00,
2013-06-01 11:50:00,81.5,62.2,30.12,WNW,300,1.6,4.0,52,0.00,,,0.04,VWS V14.00,2013-06-01 15:50:00,
2013-06-01 11:55:00,81.9,63.6,30.12,West,278,0.9,0.9,54,0.00,,,0.04,VWS V14.00,2013-06-01 15:55:00,
2013-06-01 12:17:00,83.1,63.1,30.12,West,278,0.0,1.1,51,0.00,,,0.04,VWS V14.00,2013-06-01 16:17:00,
2013-06-01 12:22:00,83.3,62.2,30.12,WSW,255,0.0,2.5,49,0.00,,,0.04,VWS V14.00,2013-06-01 16:22:00,
2013-06-01 12:27:00,83.8,62.7,30.12,SE,142,3.1,3.1,49,0.00,,,0.04,VWS V14.00,2013-06-01 16:27:00,
2013-06-01 12:32:00,84.0,62.2,30.12,WSW,255,0.0,2.7,48,0.00,,,0.04,VWS V14.00,2013-06-01 16:32:00,
2013-06-01 12:37:00,84.0,61.0,30.12,SSE,165,2.2,3.6,46,0.00,,,0.04,VWS V14.00,2013-06-01 16:37:00,
2013-06-01 12:42:00,84.2,62.4,30.12,SSW,210,0.0,2.0,48,0.00,,,0.04,VWS V14.00,2013-06-01 16:42:00,
2013-06-01 12:47:00,84.2,60.6,30.12,North,8,0.0,2.0,45,0.00,,,0.04,VWS V14.00,2013-06-01 16:47:00,
2013-06-01 12:52:00,84.9,63.1,30.12,SE,142,0.0,0.0,48,0.00,,,0.04,VWS V14.00,2013-06-01 16:52:00,
2013-06-01 12:57:00,85.1,60.8,30.12,East,98,1.1,4.0,44,0.00,,,0.04,VWS V14.00,2013-06-01 16:57:00,
2013-06-01 13:02:00,85.1,60.1,30.12,ENE,75,1.6,6.3,43,0.00,,,0.04,VWS V14.00,2013-06-01 17:02:00,
2013-06-01 13:07:00,85.1,60.8,30.09,SE,142,2.5,2.5,44,0.00,,,0.04,VWS V14.00,2013-06-01 17:07:00,
2013-06-01 13:12:00,84.9,60.6,30.09,SSW,210,0.0,1.6,44,0.00,,,0.04,VWS V14.00,2013-06-01 17:12:00,
2013-06-01 13:17:00,85.1,60.8,30.09,NE,52,4.0,4.0,44,0.00,,,0.04,VWS V14.00,2013-06-01 17:17:00,
2013-06-01 13:22:00,85.5,61.1,30.09,SE,142,1.6,4.0,44,0.00,,,0.04,VWS V14.00,2013-06-01 17:22:00,
2013-06-01 13:27:00,85.5,60.4,30.09,SW,232,1.3,2.5,43,0.00,,,0.04,VWS V14.00,2013-06-01 17:27:00,
2013-06-01 13:32:00,85.6,60.6,30.09,NW,322,2.9,2.9,43,0.00,,,0.04,VWS V14.00,2013-06-01 17:32:00,
2013-06-01 13:37:00,86.0,60.9,30.06,East,98,2.2,3.8,43,0.00,,,0.04,VWS V14.00,2013-06-01 17:37:00,
2013-06-01 13:42:00,86.7,62.2,30.06,SSW,210,2.0,2.9,44,0.00,,,0.04,VWS V14.00,2013-06-01 17:42:00,
2013-06-01 13:47:00,86.7,60.2,30.06,East,98,1.1,4.3,41,0.00,,,0.04,VWS V14.00,2013-06-01 17:47:00,
2013-06-01 13:52:00,86.4,58.5,30.06,ESE,120,1.1,3.4,39,0.00,,,0.04,VWS V14.00,2013-06-01 17:52:00,
2013-06-01 13:58:00,86.0,58.2,30.06,NNE,30,3.8,4.3,39,0.00,,,0.04,VWS V14.00,2013-06-01 17:58:00,
2013-06-01 14:03:00,86.0,59.6,30.06,SE,142,2.0,6.3,41,0.00,,,0.04,VWS V14.00,2013-06-01 18:03:00,
2013-06-01 14:08:00,86.0,58.9,30.06,NE,52,1.3,4.0,40,0.00,,,0.04,VWS V14.00,2013-06-01 18:08:00,
2013-06-01 14:13:00,86.4,59.2,30.06,SE,142,2.5,5.6,40,0.00,,,0.04,VWS V14.00,2013-06-01 18:13:00,
2013-06-01 14:18:00,86.5,60.1,30.06,ESE,120,1.6,6.0,41,0.00,,,0.04,VWS V14.00,2013-06-01 18:18:00,
2013-06-01 14:23:00,86.5,60.7,30.06,SE,142,1.3,2.7,42,0.00,,,0.04,VWS V14.00,2013-06-01 18:23:00,
2013-06-01 14:28:00,86.9,61.1,30.06,SE,142,0.0,1.6,42,0.00,,,0.04,VWS V14.00,2013-06-01 18:28:00,
2013-06-01 14:33:00,86.9,60.4,30.06,SE,142,1.3,3.8,41,0.00,,,0.04,VWS V14.00,2013-06-01 18:33:00,
2013-06-01 14:38:00,87.1,61.2,30.09,NNE,30,3.6,3.6,42,0.00,,,0.04,VWS V14.00,2013-06-01 18:38:00,
2013-06-01 14:43:00,86.5,57.9,30.09,SE,142,1.3,4.0,38,0.00,,,0.04,VWS V14.00,2013-06-01 18:43:00,
2013-06-01 14:48:00,86.7,58.8,30.09,SSE,165,0.0,2.0,39,0.00,,,0.04,VWS V14.00,2013-06-01 18:48:00,
2013-06-01 14:53:00,87.1,59.8,30.06,SSE,165,0.0,0.0,40,0.00,,,0.04,VWS V14.00,2013-06-01 18:53:00,
2013-06-01 14:58:00,86.9,59.7,30.06,West,278,2.5,2.7,40,0.00,,,0.04,VWS V14.00,2013-06-01 18:58:00,
2013-06-01 15:03:00,86.5,60.1,30.06,WSW,255,0.0,2.9,41,0.00,,,0.04,VWS V14.00,2013-06-01 19:03:00,
2013-06-01 15:09:00,86.4,60.6,30.06,East,98,2.0,5.4,42,0.00,,,0.04,VWS V14.00,2013-06-01 19:09:00,
2013-06-01 15:14:00,86.2,59.7,30.06,ENE,75,5.6,7.6,41,0.00,,,0.04,VWS V14.00,2013-06-01 19:14:00,
2013-06-01 15:19:00,86.5,61.4,30.06,SE,142,1.3,2.9,43,0.00,,,0.04,VWS V14.00,2013-06-01 19:19:00,
2013-06-01 15:24:00,86.2,61.1,30.06,SE,142,3.1,3.6,43,0.00,,,0.04,VWS V14.00,2013-06-01 19:24:00,
2013-06-01 15:29:00,86.2,61.1,30.06,SSW,210,1.6,2.5,43,0.00,,,0.04,VWS V14.00,2013-06-01 19:29:00,
2013-06-01 15:34:00,86.4,60.6,30.06,SE,142,1.3,4.9,42,0.00,,,0.04,VWS V14.00,2013-06-01 19:34:00,
2013-06-01 15:39:00,86.0,60.3,30.06,West,278,0.0,2.9,42,0.00,,,0.04,VWS V14.00,2013-06-01 19:39:00,
2013-06-01 15:44:00,85.8,60.8,30.06,SSW,210,1.1,2.5,43,0.00,,,0.04,VWS V14.00,2013-06-01 19:44:00,
2013-06-01 15:49:00,86.0,60.9,30.06,SE,142,2.7,3.8,43,0.00,,,0.04,VWS V14.00,2013-06-01 19:49:00,
2013-06-01 15:54:00,85.8,60.8,30.06,SE,142,1.3,3.1,43,0.00,,,0.04,VWS V14.00,2013-06-01 19:54:00,
2013-06-01 15:59:00,85.6,61.2,30.06,SSE,165,2.0,2.5,44,0.00,,,0.04,VWS V14.00,2013-06-01 19:59:00,
2013-06-01 16:04:00,85.6,61.2,30.06,SSE,165,1.1,4.0,44,0.00,,,0.04,VWS V14.00,2013-06-01 20:04:00,
2013-06-01 16:09:00,85.6,61.2,30.03,SE,142,1.3,2.7,44,0.00,,,0.04,VWS V14.00,2013-06-01 20:09:00,
2013-06-01 16:15:00,85.8,60.1,30.03,ESE,120,2.7,6.5,42,0.00,,,0.04,VWS V14.00,2013-06-01 20:15:00,
2013-06-01 16:20:00,85.8,61.4,30.03,SSE,165,0.9,2.5,44,0.00,,,0.04,VWS V14.00,2013-06-01 20:20:00,
2013-06-01 16:25:00,85.8,60.1,30.03,NE,52,0.0,2.9,42,0.00,,,0.04,VWS V14.00,2013-06-01 20:25:00,
2013-06-01 16:30:00,86.0,60.9,30.03,NNE,30,3.8,5.8,43,0.00,,,0.04,VWS V14.00,2013-06-01 20:30:00,
2013-06-01 16:35:00,86.2,61.1,30.03,NW,322,3.4,3.4,43,0.00,,,0.04,VWS V14.00,2013-06-01 20:35:00,
2013-06-01 16:40:00,85.6,61.2,30.03,WNW,300,0.9,3.1,44,0.00,,,0.04,VWS V14.00,2013-06-01 20:40:00,
2013-06-01 16:45:00,85.6,61.9,30.03,ENE,75,2.2,3.4,45,0.00,,,0.04,VWS V14.00,2013-06-01 20:45:00,
2013-06-01 16:50:00,85.6,61.2,30.03,ESE,120,2.5,5.4,44,0.00,,,0.04,VWS V14.00,2013-06-01 20:50:00,
2013-06-01 16:55:00,85.1,60.8,30.03,SE,142,0.0,2.7,44,0.00,,,0.04,VWS V14.00,2013-06-01 20:55:00,
2013-06-01 17:00:00,84.6,60.3,30.03,South,188,1.6,4.9,44,0.00,,,0.04,VWS V14.00,2013-06-01 21:00:00,
2013-06-01 17:05:00,84.4,60.7,30.03,SE,142,0.0,2.5,45,0.00,,,0.04,VWS V14.00,2013-06-01 21:05:00,
2013-06-01 17:10:00,84.2,61.2,30.03,SE,142,1.3,2.5,46,0.00,,,0.04,VWS V14.00,2013-06-01 21:10:00,
2013-06-01 17:15:00,84.4,61.4,30.03,ENE,75,2.5,3.6,46,0.00,,,0.04,VWS V14.00,2013-06-01 21:15:00,
2013-06-01 17:20:00,84.4,61.4,30.03,SSE,165,1.1,3.4,46,0.00,,,0.04,VWS V14.00,2013-06-01 21:20:00,
2013-06-01 17:25:00,84.2,62.4,30.03,SSE,165,0.0,3.1,48,0.00,,,0.04,VWS V14.00,2013-06-01 21:25:00,
2013-06-01 17:30:00,84.0,62.2,30.03,East,98,1.6,4.3,48,0.00,,,0.04,VWS V14.00,2013-06-01 21:30:00,
2013-06-01 17:35:00,83.8,60.9,30.03,South,188,3.4,3.4,46,0.00,,,0.04,VWS V14.00,2013-06-01 21:35:00,
2013-06-01 17:40:00,83.3,60.4,30.03,ESE,120,0.0,3.4,46,0.00,,,0.04,VWS V14.00,2013-06-01 21:40:00,
2013-06-01 17:45:00,82.9,60.7,30.03,SE,142,2.2,3.1,47,0.00,,,0.04,VWS V14.00,2013-06-01 21:45:00,
2013-06-01 17:50:00,82.8,60.5,30.03,SE,142,0.0,2.2,47,0.00,,,0.04,VWS V14.00,2013-06-01 21:50:00,
2013-06-01 17:55:00,82.9,61.2,30.03,ESE,120,0.0,0.0,48,0.00,,,0.04,VWS V14.00,2013-06-01 21:55:00,
2013-06-01 18:21:00,82.8,60.5,30.03,SSW,210,3.8,3.8,47,0.00,,,0.04,VWS V14.00,2013-06-01 22:21:00,
2013-06-01 18:26:00,82.8,60.5,30.03,SE,142,0.9,0.9,47,0.00,,,0.04,VWS V14.00,2013-06-01 22:26:00,
2013-06-01 18:31:00,82.8,60.5,30.03,SSW,210,2.9,2.9,47,0.00,,,0.04,VWS V14.00,2013-06-01 22:31:00,
2013-06-01 18:36:00,82.8,61.1,30.03,WNW,300,2.0,2.9,48,0.00,,,0.04,VWS V14.00,2013-06-01 22:36:00,
2013-06-01 18:41:00,82.6,60.3,30.03,NE,52,2.7,2.7,47,0.00,,,0.04,VWS V14.00,2013-06-01 22:41:00,
2013-06-01 18:46:00,82.2,60.6,30.03,ESE,120,2.2,2.2,48,0.00,,,0.04,VWS V14.00,2013-06-01 22:46:00,
2013-06-01 18:51:00,82.0,60.4,30.03,East,98,0.0,2.2,48,0.00,,,0.04,VWS V14.00,2013-06-01 22:51:00,
2013-06-01 18:56:00,82.0,60.4,30.03,NE,52,2.2,3.8,48,0.00,,,0.04,VWS V14.00,2013-06-01 22:56:00,
2013-06-01 19:01:00,81.9,60.3,30.03,SE,142,1.6,2.7,48,0.00,,,0.04,VWS V14.00,2013-06-01 23:01:00,
2013-06-01 19:06:00,81.9,60.3,30.03,East,98,3.4,3.4,48,0.00,,,0.04,VWS V14.00,2013-06-01 23:06:00,
2013-06-01 19:11:00,81.9,60.8,30.00,SE,142,0.0,1.3,49,0.00,,,0.04,VWS V14.00,2013-06-01 23:11:00,
2013-06-01 19:16:00,81.7,60.7,30.00,ENE,75,3.6,4.3,49,0.00,,,0.04,VWS V14.00,2013-06-01 23:16:00,
2013-06-01 19:21:00,81.3,61.5,30.00,ESE,120,0.0,0.0,51,0.00,,,0.04,VWS V14.00,2013-06-01 23:21:00,
2013-06-01 19:26:00,81.1,60.8,30.00,NE,52,2.9,2.9,50,0.00,,,0.04,VWS V14.00,2013-06-01 23:26:00,
2013-06-01 19:31:00,81.1,60.8,30.00,ESE,120,0.0,0.0,50,0.00,,,0.04,VWS V14.00,2013-06-01 23:31:00,
2013-06-01 19:36:00,81.0,61.2,30.03,ESE,120,0.0,0.0,51,0.00,,,0.04,VWS V14.00,2013-06-01 23:36:00,
2013-06-01 19:41:00,80.8,61.0,30.03,ESE,120,0.0,1.6,51,0.00,,,0.04,VWS V14.00,2013-06-01 23:41:00,
2013-06-01 19:47:00,80.8,61.5,30.03,East,98,0.0,2.2,52,0.00,,,0.04,VWS V14.00,2013-06-01 23:47:00,
2013-06-01 19:52:00,80.4,61.2,30.00,ESE,120,1.3,1.3,52,0.00,,,0.04,VWS V14.00,2013-06-01 23:52:00,
2013-06-01 19:57:00,80.2,61.0,30.00,ESE,120,1.3,2.2,52,0.00,,,0.04,VWS V14.00,2013-06-01 23:57:00,
2013-06-01 20:02:00,79.9,61.2,30.00,ESE,120,0.0,0.0,53,0.00,,,0.04,VWS V14.00,2013-06-02 00:02:00,
2013-06-01 20:07:00,79.5,60.9,30.00,ESE,120,0.0,0.0,53,0.00,,,0.04,VWS V14.00,2013-06-02 00:07:00,
2013-06-01 20:12:00,79.3,60.7,30.00,ESE,120,0.0,1.6,53,0.00,,,0.04,VWS V14.00,2013-06-02 00:12:00,
2013-06-01 20:17:00,79.2,60.6,30.00,ESE,120,0.0,0.0,53,0.00,,,0.04,VWS V14.00,2013-06-02 00:17:00,
2013-06-01 20:22:00,78.8,60.8,30.00,ESE,120,0.0,0.0,54,0.00,,,0.04,VWS V14.00,2013-06-02 00:22:00,
2013-06-01 20:27:00,78.6,61.6,30.00,ESE,120,0.0,0.0,56,0.00,,,0.04,VWS V14.00,2013-06-02 00:27:00,
2013-06-01 20:32:00,77.9,61.0,30.00,ESE,120,0.0,0.0,56,0.00,,,0.04,VWS V14.00,2013-06-02 00:32:00,
2013-06-01 20:37:00,77.7,61.3,30.00,ESE,120,0.0,0.0,57,0.00,,,0.04,VWS V14.00,2013-06-02 00:37:00,
2013-06-01 20:42:00,77.4,61.4,30.00,ESE,120,0.0,0.0,58,0.00,,,0.04,VWS V14.00,2013-06-02 00:42:00,
2013-06-01 20:47:00,77.0,61.1,30.00,ESE,120,0.0,0.0,58,0.00,,,0.04,VWS V14.00,2013-06-02 00:47:00,
2013-06-01 20:52:00,76.5,61.6,30.00,ESE,120,0.0,0.0,60,0.00,,,0.04,VWS V14.00,2013-06-02 00:52:00,
2013-06-01 20:57:00,76.1,61.7,30.00,ESE,120,0.0,0.0,61,0.00,,,0.04,VWS V14.00,2013-06-02 00:57:00,
2013-06-01 21:03:00,75.9,62.4,30.00,ESE,120,0.0,0.0,63,0.00,,,0.04,VWS V14.00,2013-06-02 01:03:00,
2013-06-01 21:08:00,75.4,61.5,30.00,ESE,120,0.0,0.0,62,0.00,,,0.04,VWS V14.00,2013-06-02 01:08:00,
2013-06-01 21:13:00,75.0,61.6,30.00,ESE,120,0.0,0.0,63,0.00,,,0.04,VWS V14.00,2013-06-02 01:13:00,
2013-06-01 21:18:00,74.8,61.9,30.00,ESE,120,0.0,0.0,64,0.00,,,0.04,VWS V14.00,2013-06-02 01:18:00,
2013-06-01 21:23:00,74.5,62.0,30.00,ESE,120,0.0,0.0,65,0.00,,,0.04,VWS V14.00,2013-06-02 01:23:00,
2013-06-01 21:28:00,74.1,62.0,30.00,ESE,120,0.0,0.0,66,0.00,,,0.04,VWS V14.00,2013-06-02 01:28:00,
2013-06-01 21:33:00,73.6,61.5,30.00,ESE,120,0.0,0.0,66,0.00,,,0.04,VWS V14.00,2013-06-02 01:33:00,
2013-06-01 21:38:00,73.4,61.8,30.03,ESE,120,0.0,0.0,67,0.00,,,0.04,VWS V14.00,2013-06-02 01:38:00,
2013-06-01 21:43:00,73.2,62.0,30.03,ESE,120,0.0,0.0,68,0.00,,,0.04,VWS V14.00,2013-06-02 01:43:00,
2013-06-01 21:48:00,72.9,61.7,30.03,ESE,120,0.0,0.0,68,0.00,,,0.04,VWS V14.00,2013-06-02 01:48:00,
2013-06-01 21:53:00,72.7,61.5,30.03,ESE,120,0.0,0.0,68,0.00,,,0.04,VWS V14.00,2013-06-02 01:53:00,
2013-06-01 21:58:00,72.5,61.8,30.03,ESE,120,0.0,0.0,69,0.00,,,0.04,VWS V14.00,2013-06-02 01:58:00,
2013-06-01 22:04:00,72.3,61.6,30.03,ESE,120,0.0,0.0,69,0.00,,,0.04,VWS V14.00,2013-06-02 02:04:00,
2013-06-01 22:09:00,72.1,61.4,30.03,ESE,120,0.0,0.0,69,0.00,,,0.04,VWS V14.00,2013-06-02 02:09:00,
2013-06-01 22:14:00,72.0,61.7,30.03,ESE,120,0.0,0.0,70,0.00,,,0.04,VWS V14.00,2013-06-02 02:14:00,
2013-06-01 22:19:00,71.8,61.5,30.03,ESE,120,0.0,0.0,70,0.00,,,0.04,VWS V14.00,2013-06-02 02:19:00,
2013-06-01 22:24:00,71.6,61.7,30.03,ESE,120,0.0,0.0,71,0.00,,,0.04,VWS V14.00,2013-06-02 02:24:00,
2013-06-01 22:29:00,71.6,61.7,30.03,ESE,120,0.0,0.0,71,0.00,,,0.04,VWS V14.00,2013-06-02 02:29:00,
2013-06-01 22:34:00,71.4,61.9,30.03,ESE,120,0.0,0.0,72,0.00,,,0.04,VWS V14.00,2013-06-02 02:34:00,
2013-06-01 22:39:00,71.4,61.9,30.03,ESE,120,0.0,0.0,72,0.00,,,0.04,VWS V14.00,2013-06-02 02:39:00,
2013-06-01 22:44:00,71.4,62.3,30.03,ESE,120,0.0,0.0,73,0.00,,,0.04,VWS V14.00,2013-06-02 02:44:00,
2013-06-01 22:49:00,71.2,62.5,30.03,ESE,120,0.0,0.0,74,0.00,,,0.04,VWS V14.00,2013-06-02 02:49:00,
2013-06-01 22:54:00,71.4,62.7,30.03,ESE,120,0.0,0.0,74,0.00,,,0.04,VWS V14.00,2013-06-02 02:54:00,
2013-06-01 22:59:00,71.4,63.1,30.03,ESE,120,0.0,0.0,75,0.00,,,0.04,VWS V14.00,2013-06-02 02:59:00,
2013-06-01 23:04:00,71.4,63.5,30.03,ESE,120,0.0,0.0,76,0.00,,,0.04,VWS V14.00,2013-06-02 03:04:00,
2013-06-01 23:09:00,71.4,63.8,30.03,SE,142,0.0,0.0,77,0.00,,,0.04,VWS V14.00,2013-06-02 03:09:00,
2013-06-01 23:14:00,71.4,63.8,30.03,ESE,120,0.0,0.0,77,0.00,,,0.04,VWS V14.00,2013-06-02 03:14:00,
2013-06-01 23:19:00,71.6,63.6,30.03,ESE,120,0.0,0.0,76,0.00,,,0.04,VWS V14.00,2013-06-02 03:19:00,
2013-06-01 23:24:00,72.0,64.0,30.03,SE,142,0.0,1.1,76,0.00,,,0.04,VWS V14.00,2013-06-02 03:24:00,
2013-06-01 23:30:00,72.0,63.6,30.03,ESE,120,0.0,0.0,75,0.00,,,0.04,VWS V14.00,2013-06-02 03:30:00,
2013-06-01 23:35:00,72.5,64.5,30.03,ESE,120,2.5,2.5,76,0.00,,,0.04,VWS V14.00,2013-06-02 03:35:00,
2013-06-01 23:40:00,72.9,64.9,30.03,ESE,120,2.0,2.7,76,0.00,,,0.04,VWS V14.00,2013-06-02 03:40:00,
2013-06-01 23:45:00,73.4,65.0,30.03,SE,142,0.0,2.2,75,0.00,,,0.04,VWS V14.00,2013-06-02 03:45:00,
2013-06-01 23:50:00,73.8,65.3,30.03,ESE,120,0.0,2.5,75,0.00,,,0.04,VWS V14.00,2013-06-02 03:50:00,
2013-06-01 23:55:00,73.9,65.1,30.03,SE,142,0.0,2.7,74,0.00,,,0.04,VWS V14.00,2013-06-02 03:55:00,